Location: Wellington
(41.3000°S, 174.7830°E)
Time: 02:18:15
(UTC+12:00)

Meteor 1-25 Rocket - Pass Details

Date: 24 January 2019
Orbit: 837 x 891 km, 81.2° (Epoch: 19 April)

Event Time Altitude Azimuth Distance (km) Brightness Sun altitude
Rises 23:15:27 0° 191° (S) 3,519 8.6 -21.6°
Reaches altitude 10° 23:17:55 10° 190° (S) 2,579 7.6 -21.9°
Maximum altitude 23:23:50 87° 279° (W) 906 4.3 -22.5°
Enters shadow 23:25:46 45° 5° (N) 1,204 4.6 -22.7°
